Oscoda, MI

12:03 AM EST on December 14, 2019 (GMT -0500)
Oscoda-Wurtsmith

Weather History for KOSC - October, 2019

Change the Weather History Date:

Saturday, October 19, 2019

  Actual Average Record
Temperature  
Mean Temperature 44 °F -  
Max Temperature 57 °F 52 °F 70 °F (2016)
Min Temperature 31 °F 37 °F 28 °F (1997)
Degree Days  
Heating Degree Days 21    
Moisture  
Dew Point 40 °F    
Average Humidity 82    
Maximum Humidity 99    
Minimum Humidity 63    
Precipitation  
Precipitation 0.00 in - - ()
Sea Level Pressure  
Sea Level Pressure 29.93 in    
Wind  
Wind Speed 3 mph (SSE)    
Max Wind Speed 12 mph    
Max Gust Speed -    
Visibility 10 miles    
Events      
Averages and records for this station are not official NWS values.
T = Trace of Precipitation, MM = Missing Value Source: NWS Daily Summary

Daily Weather History Graph

Daily Weather History Graph

Search for Another Location

Airport or City:

Astronomy

Oct. 19, 2019 Rise Set
Actual Time 7:53 AM EDT 6:42 PM EDT
Civil Twilight 7:23 AM EDT 7:12 PM EDT
Nautical Twilight 6:50 AM EDT 7:46 PM EDT
Astronomical Twilight 6:16 AM EDT 8:19 PM EDT
Moon 10:41 PM EDT (10/19) 1:34 PM EDT (10/19)
Length of Visible Light 11h 48m
Length of Day
10h 49m
Waning Gibbous, 70% of the Moon is Illuminated
Oct 19
Waning Gibbous
Oct 21
Last Quarter
Oct 27
New
Nov 4
First Quarter
Nov 12
Full

Hourly Weather History & Observations

Time (EDT) Temp. Windchill Dew Point Humidity Pressure Visibility Wind Dir Wind Speed Gust Speed Precip Events Conditions
12:17 AM 32.4 °F - 29.3 °F 88% 30.03 in 10.0 mi Calm Calm - N/A   Clear
12:35 AM 32.7 °F - 30.2 °F 90% 30.02 in 10.0 mi Calm Calm - N/A   Clear
12:36 AM 32.7 °F - 30.2 °F 90% 30.02 in 10.0 mi Calm Calm - N/A   Clear
12:55 AM 34.7 °F - 32.0 °F 90% 30.01 in 10.0 mi Calm Calm - N/A   Clear
12:56 AM 34.7 °F - 31.8 °F 89% 30.01 in 10.0 mi Calm Calm - N/A   Clear
1:15 AM 32.9 °F - 30.6 °F 91% 30.01 in 10.0 mi Calm Calm - N/A   Clear
1:37 AM 32.2 °F - 29.8 °F 91% 30.01 in 10.0 mi Calm Calm - N/A   Clear
1:56 AM 32.7 °F - 31.1 °F 94% 30.01 in 10.0 mi Calm Calm - N/A   Clear
2:15 AM 32.9 °F - 30.7 °F 92% 30.01 in 10.0 mi Calm Calm - N/A   Clear
2:16 AM 32.9 °F - 30.7 °F 92% 30.01 in 10.0 mi Calm Calm - N/A   Clear
2:35 AM 33.1 °F - 30.9 °F 92% 30.01 in 10.0 mi Calm Calm - N/A   Clear
2:36 AM 33.1 °F - 30.7 °F 91% 30.01 in 10.0 mi Calm Calm - N/A   Clear
2:59 AM 32.9 °F - 30.4 °F 90% 30.01 in 10.0 mi Calm Calm - N/A   Clear
3:17 AM 32.7 °F - 30.6 °F 92% 30.01 in 10.0 mi Calm Calm - N/A   Clear
3:35 AM 32.0 °F - 29.5 °F 90% 30.01 in 10.0 mi Calm Calm - N/A   Clear
3:36 AM 32.0 °F - 29.5 °F 90% 30.01 in 10.0 mi Calm Calm - N/A   Clear
3:55 AM 32.9 °F - 30.7 °F 92% 30.01 in 10.0 mi Calm Calm - N/A   Clear
3:56 AM 32.9 °F - 30.9 °F 92% 30.01 in 10.0 mi Calm Calm - N/A   Clear
4:15 AM 32.5 °F - 30.4 °F 92% 30.00 in 10.0 mi Calm Calm - N/A   Clear
4:38 AM 32.9 °F - 32.0 °F 96% 30.00 in 3.0 mi Calm Calm - N/A   Clear
4:56 AM 32.9 °F - 32.0 °F 96% 30.00 in 10.0 mi Calm Calm - N/A   Clear
5:15 AM 32.0 °F - 31.8 °F 99% 29.99 in 10.0 mi Calm Calm - N/A   Clear
5:16 AM 32.0 °F - 31.8 °F 99% 29.99 in 10.0 mi Calm Calm - N/A   Clear
5:35 AM 32.0 °F - 31.1 °F 96% 29.99 in 2.0 mi Calm Calm - N/A   Mostly Cloudy
6:17 AM 31.5 °F - 30.0 °F 94% 29.99 in 10.0 mi Calm Calm - N/A   Scattered Clouds
6:35 AM 32.4 °F - 32.0 °F 99% 29.99 in 10.0 mi Calm Calm - N/A   Clear
6:36 AM 32.5 °F - 32.2 °F 99% 29.99 in 10.0 mi Calm Calm - N/A   Clear
6:55 AM 32.5 °F - 31.6 °F 96% 29.99 in 2.5 mi Calm Calm - N/A   Clear
7:15 AM 32.2 °F - 31.5 °F 97% 30.00 in 1.0 mi Calm Calm - N/A   Mist
7:38 AM 33.3 °F 30.2 °F 32.2 °F 96% 29.99 in 10.0 mi South 3.5 mph - N/A   Clear
7:55 AM 32.2 °F - 30.6 °F 94% 29.99 in 10.0 mi Calm Calm - N/A   Clear
8:15 AM 32.7 °F - 31.6 °F 96% 29.99 in 2.5 mi Calm Calm - N/A   Clear
8:35 AM 36.0 °F - 34.9 °F 96% 29.98 in 4.0 mi Calm Calm - N/A   Clear
8:59 AM 43.9 °F 41.3 °F 40.8 °F 89% 29.98 in 10.0 mi SSE 4.6 mph - N/A   Clear
9:17 AM 43.5 °F - 40.6 °F 90% 29.97 in 10.0 mi Calm Calm - N/A   Clear
9:36 AM 47.1 °F - 43.7 °F 88% 29.98 in 10.0 mi South 6.9 mph - N/A   Clear
9:55 AM 48.4 °F - 44.2 °F 86% 29.98 in 10.0 mi SSW 6.9 mph - N/A   Clear
10:15 AM 50.2 °F - 44.4 °F 81% 29.99 in 10.0 mi SSW 6.9 mph - N/A   Clear
10:38 AM 51.3 °F - 44.1 °F 76% 29.99 in 10.0 mi South 5.8 mph - N/A   Clear
10:56 AM 52.0 °F - 43.0 °F 71% 29.97 in 10.0 mi South 8.1 mph - N/A   Clear
11:15 AM 52.0 °F - 43.0 °F 71% 29.97 in 10.0 mi South 11.5 mph - N/A   Clear
11:35 AM 52.2 °F - 43.2 °F 71% 29.96 in 10.0 mi South 9.2 mph - N/A   Clear
11:36 AM 52.2 °F - 43.2 °F 71% 29.96 in 10.0 mi South 10.4 mph - N/A   Clear
12:17 PM 52.7 °F - 43.3 °F 70% 29.95 in 10.0 mi South 5.8 mph - N/A   Clear
12:35 PM 53.1 °F - 43.7 °F 71% 29.95 in 10.0 mi South 9.2 mph - N/A   Clear
12:55 PM 53.6 °F - 43.9 °F 70% 29.94 in 10.0 mi South 11.5 mph - N/A   Clear
12:56 PM 53.6 °F - 43.7 °F 69% 29.94 in 10.0 mi South 10.4 mph - N/A   Clear
1:15 PM 54.3 °F - 43.9 °F 68% 29.93 in 10.0 mi South 6.9 mph - N/A   Clear
1:38 PM 54.5 °F - 43.9 °F 67% 29.92 in 10.0 mi South 11.5 mph - N/A   Clear
1:56 PM 55.6 °F - 44.6 °F 67% 29.91 in 10.0 mi South 9.2 mph - N/A   Clear
2:15 PM 57.6 °F - 45.1 °F 63% 29.90 in 10.0 mi South 8.1 mph - N/A   Clear
2:16 PM 57.7 °F - 45.1 °F 63% 29.90 in 10.0 mi SSW 8.1 mph - N/A   Clear
2:35 PM 57.4 °F - 45.7 °F 65% 29.90 in 10.0 mi SSE 8.1 mph - N/A   Clear
2:36 PM 57.6 °F - 45.7 °F 65% 29.90 in 10.0 mi SSE 6.9 mph - N/A   Clear
2:59 PM 55.9 °F - 45.9 °F 69% 29.88 in 10.0 mi ESE 6.9 mph - N/A   Clear
3:17 PM 55.9 °F - 46.8 °F 71% 29.88 in 10.0 mi SE 6.9 mph - N/A   Clear
3:35 PM 56.7 °F - 45.9 °F 67% 29.88 in 10.0 mi SE 9.2 mph - N/A   Clear
3:36 PM 56.8 °F - 45.9 °F 67% 29.88 in 10.0 mi ESE 9.2 mph - N/A   Clear
3:55 PM 55.4 °F - 46.4 °F 72% 29.88 in 10.0 mi ESE 10.4 mph - N/A   Clear
3:56 PM 55.2 °F - 46.4 °F 72% 29.88 in 10.0 mi ESE 10.4 mph - N/A   Clear
4:15 PM 54.7 °F - 47.1 °F 76% 29.87 in 10.0 mi SE 5.8 mph - N/A   Clear
4:38 PM 53.8 °F - 47.3 °F 79% 29.86 in 10.0 mi ESE 5.8 mph - N/A   Clear
4:56 PM 53.6 °F - 47.3 °F 79% 29.85 in 10.0 mi ESE 5.8 mph - N/A   Clear
5:15 PM 53.2 °F - 47.3 °F 80% 29.85 in 10.0 mi ESE 6.9 mph - N/A   Clear
5:35 PM 53.2 °F - 47.5 °F 81% 29.84 in 10.0 mi SE 4.6 mph - N/A   Clear
5:36 PM 53.2 °F - 47.7 °F 81% 29.84 in 10.0 mi SE 4.6 mph - N/A   Clear
5:59 PM 53.1 °F - 47.7 °F 82% 29.85 in 10.0 mi SSE 4.6 mph - N/A   Clear
6:17 PM 53.1 °F - 47.3 °F 81% 29.85 in 10.0 mi SE 4.6 mph - N/A   Clear
6:35 PM 52.9 °F - 47.1 °F 81% 29.84 in 10.0 mi SE 5.8 mph - N/A   Clear
6:36 PM 52.9 °F - 46.9 °F 80% 29.84 in 10.0 mi SE 5.8 mph - N/A   Clear
6:55 PM 52.7 °F - 46.9 °F 81% 29.84 in 10.0 mi SE 4.6 mph - N/A   Clear
6:56 PM 52.7 °F - 46.9 °F 81% 29.84 in 10.0 mi SE 4.6 mph - N/A   Clear
7:15 PM 52.2 °F - 46.9 °F 82% 29.84 in 10.0 mi SSE 4.6 mph - N/A   Clear
7:20 PM 52.0 °F - 46.8 °F 82% 29.84 in 10.0 mi SE 4.6 mph - N/A   Clear
7:38 PM 52.0 °F - 46.8 °F 82% 29.84 in 10.0 mi SSE 5.8 mph - N/A   Clear
7:56 PM 52.0 °F - 46.6 °F 82% 29.84 in 10.0 mi SSE 5.8 mph - N/A   Clear
8:15 PM 51.8 °F - 46.4 °F 82% 29.85 in 10.0 mi Calm Calm - N/A   Clear
8:16 PM 51.8 °F - 46.4 °F 82% 29.85 in 10.0 mi SSE 3.5 mph - N/A   Clear
8:35 PM 51.8 °F - 46.6 °F 82% 29.84 in 10.0 mi SE 4.6 mph - N/A   Clear
8:36 PM 51.8 °F - 46.6 °F 82% 29.84 in 10.0 mi SE 4.6 mph - N/A   Clear
8:59 PM 52.0 °F - 46.6 °F 82% 29.83 in 10.0 mi SE 4.6 mph - N/A   Clear
9:17 PM 52.0 °F - 46.4 °F 81% 29.83 in 10.0 mi SE 4.6 mph - N/A   Clear
9:35 PM 52.2 °F - 46.4 °F 81% 29.83 in 10.0 mi SE 4.6 mph - N/A   Clear
9:55 PM 51.8 °F - 46.4 °F 82% 29.84 in 10.0 mi SSE 4.6 mph - N/A   Clear
9:56 PM 51.8 °F - 46.4 °F 82% 29.84 in 10.0 mi SSE 4.6 mph - N/A   Clear
10:15 PM 51.8 °F - 45.7 °F 80% 29.84 in 10.0 mi South 6.9 mph - N/A   Clear
10:20 PM 51.8 °F - 45.5 °F 79% 29.84 in 10.0 mi South 6.9 mph - N/A   Clear
10:37 PM 52.7 °F - 43.9 °F 72% 29.84 in 10.0 mi South 6.9 mph - N/A   Clear
10:56 PM 52.7 °F - 43.7 °F 71% 29.83 in 10.0 mi South 8.1 mph - N/A   Clear
11:15 PM 52.2 °F - 43.7 °F 73% 29.84 in 10.0 mi South 6.9 mph - N/A   Clear
11:16 PM 52.2 °F - 43.7 °F 73% 29.84 in 10.0 mi South 5.8 mph - N/A   Clear
11:35 PM 51.8 °F - 43.3 °F 73% 29.82 in 10.0 mi South 6.9 mph - N/A   Clear
11:59 PM 52.0 °F - 43.2 °F 72% 29.83 in 10.0 mi South 6.9 mph - N/A   Clear